CES9602 ZYTX-ZGSZ

Flight info

Callsign CES9602
Flight time N/A
Altitude 40100
Route OMD62D OMDUS A575 CHG G332 MUDAM G212 VYK W37 GUSIV/K0902S1250 W37 PEXID/K0904S1220 W37 OMBEB/K0898S1250 R473 NNX/K0906S1220 R473 NOLON W90 POU W7 SAREX SAREX4
Aircraft A359/H-SDE2E3GHIJ3J4J5LM1ORWXY/LB1D1

Departure

Time 2026-04-22 06:39
Airport Shenyang Taoxian International Airport (ZYTX)

Arrival

Time N/A
Airport Shenzhen Bao'an International Airport (ZGSZ)
Time Latitude Longitude Altitude Speed Heading
2026-04-22 06:17 41.63711 123.48616 192 ft 0 kts 320°
2026-04-22 06:31 41.63695 123.48633 207 ft 4 kts 328°
2026-04-22 06:31 41.63671 123.48648 207 ft 4 kts 350°
2026-04-22 06:31 41.63646 123.48647 205 ft 4 kts 29°
2026-04-22 06:32 41.63635 123.48637 207 ft 0 kts 48°
2026-04-22 06:32 41.63634 123.48637 207 ft 0 kts 48°
2026-04-22 06:32 41.63632 123.48638 207 ft 0 kts 48°
2026-04-22 06:32 41.63631 123.48638 207 ft 0 kts 48°
2026-04-22 06:33 41.63629 123.48638 207 ft 0 kts 48°
2026-04-22 06:33 41.63628 123.48638 207 ft 0 kts 48°
2026-04-22 06:33 41.63626 123.48639 207 ft 0 kts 48°
2026-04-22 06:34 41.63629 123.48643 207 ft 3 kts 46°
2026-04-22 06:34 41.63699 123.48715 209 ft 16 kts 31°
2026-04-22 06:34 41.63751 123.48709 208 ft 5 kts 311°
2026-04-22 06:34 41.63783 123.48656 203 ft 9 kts 306°
2026-04-22 06:35 41.63829 123.48575 204 ft 11 kts 316°
2026-04-22 06:35 41.63850 123.48486 199 ft 12 kts 242°
2026-04-22 06:35 41.63787 123.48382 204 ft 17 kts 227°
2026-04-22 06:35 41.63698 123.48249 206 ft 21 kts 229°
2026-04-22 06:36 41.63591 123.48086 204 ft 25 kts 229°
2026-04-22 06:36 41.63473 123.47905 199 ft 27 kts 229°
2026-04-22 06:36 41.63344 123.47716 202 ft 29 kts 229°
2026-04-22 06:36 41.63210 123.47507 183 ft 30 kts 230°
2026-04-22 06:37 41.63108 123.47358 182 ft 12 kts 228°
2026-04-22 06:37 41.63046 123.47264 181 ft 15 kts 228°
2026-04-22 06:37 41.62976 123.47158 180 ft 9 kts 228°
2026-04-22 06:37 41.62946 123.47077 179 ft 10 kts 275°
2026-04-22 06:38 41.62989 123.46989 179 ft 12 kts 314°
2026-04-22 06:38 41.63053 123.46946 179 ft 9 kts
2026-04-22 06:38 41.63102 123.46990 179 ft 15 kts 48°
2026-04-22 06:38 41.63318 123.47314 194 ft 81 kts 48°
2026-04-22 06:39 41.63834 123.48089 199 ft 140 kts 47°
2026-04-22 06:39 41.64544 123.49169 612 ft 156 kts 49°
2026-04-22 06:39 41.65190 123.50286 1490 ft 150 kts 51°
2026-04-22 06:39 41.65750 123.51480 2030 ft 157 kts 54°
2026-04-22 06:40 41.66518 123.52626 2423 ft 180 kts 41°
2026-04-22 06:40 41.67487 123.53879 2720 ft 207 kts 42°
2026-04-22 06:40 41.68553 123.55341 3071 ft 230 kts 45°
2026-04-22 06:40 41.69680 123.56973 3549 ft 245 kts 45°
2026-04-22 06:41 41.70730 123.58813 4110 ft 255 kts 61°
2026-04-22 06:41 41.71081 123.61173 4758 ft 265 kts 86°
2026-04-22 06:41 41.71032 123.63649 5379 ft 273 kts 89°
2026-04-22 06:41 41.70942 123.66228 5937 ft 282 kts 89°
2026-04-22 06:42 41.70857 123.68880 6527 ft 289 kts 88°
2026-04-22 06:42 41.70781 123.71595 7128 ft 294 kts 88°
2026-04-22 06:42 41.70709 123.74343 7797 ft 297 kts 88°
2026-04-22 06:42 41.70637 123.77124 8431 ft 301 kts 87°
2026-04-22 06:43 41.70729 123.79925 9039 ft 300 kts 73°
2026-04-22 06:43 41.71432 123.82519 9716 ft 296 kts 58°
2026-04-22 06:43 41.72367 123.84980 10346 ft 298 kts 56°
2026-04-22 06:43 41.73329 123.87464 10930 ft 304 kts 58°
2026-04-22 06:44 41.73965 123.90216 11498 ft 318 kts 79°
2026-04-22 06:44 41.73683 123.93181 12110 ft 329 kts 110°
2026-04-22 06:44 41.72389 123.95700 12719 ft 332 kts 141°
2026-04-22 06:44 41.70426 123.97138 13315 ft 324 kts 169°
2026-04-22 06:45 41.68194 123.97770 13735 ft 331 kts 179°
2026-04-22 06:45 41.65891 123.97603 13986 ft 333 kts 200°
2026-04-22 06:45 41.63853 123.96221 14204 ft 330 kts 226°
2026-04-22 06:45 41.62495 123.93786 14383 ft 330 kts 252°
2026-04-22 06:46 41.62059 123.90783 14632 ft 333 kts 271°
2026-04-22 06:46 41.62096 123.87642 14923 ft 341 kts 274°
2026-04-22 06:46 41.62159 123.84457 15392 ft 344 kts 273°
2026-04-22 06:46 41.62188 123.81278 15897 ft 346 kts 273°
2026-04-22 06:47 41.62195 123.78047 16402 ft 349 kts 272°
2026-04-22 06:47 41.62187 123.74799 16946 ft 350 kts 272°
2026-04-22 06:47 41.62172 123.71536 17464 ft 351 kts 272°
2026-04-22 06:47 41.62150 123.68086 17985 ft 353 kts 272°
2026-04-22 06:48 41.62126 123.64795 18458 ft 355 kts 272°
2026-04-22 06:48 41.62100 123.61487 18889 ft 357 kts 272°
2026-04-22 06:48 41.62072 123.58167 19307 ft 358 kts 272°
2026-04-22 06:48 41.62043 123.54826 19713 ft 360 kts 272°
2026-04-22 06:49 41.62013 123.51470 20126 ft 361 kts 272°
2026-04-22 06:49 41.61981 123.48103 20528 ft 363 kts 272°
2026-04-22 06:49 41.61949 123.44721 20925 ft 364 kts 272°
2026-04-22 06:49 41.61915 123.41374 21303 ft 366 kts 272°
2026-04-22 06:50 41.61881 123.37963 21669 ft 368 kts 272°
2026-04-22 06:50 41.61844 123.34528 21968 ft 371 kts 271°
2026-04-22 06:50 41.61807 123.31063 22305 ft 373 kts 271°
2026-04-22 06:50 41.61768 123.27575 22676 ft 374 kts 271°
2026-04-22 06:51 41.61728 123.24091 23042 ft 376 kts 271°
2026-04-22 06:51 41.61686 123.20580 23394 ft 378 kts 271°
2026-04-22 06:51 41.61645 123.17107 23713 ft 379 kts 271°
2026-04-22 06:51 41.61601 123.13572 24001 ft 381 kts 271°
2026-04-22 06:52 41.61556 123.10025 24287 ft 382 kts 271°
2026-04-22 06:52 41.61509 123.06466 24582 ft 384 kts 271°
2026-04-22 06:52 41.61462 123.02891 24872 ft 385 kts 271°
2026-04-22 06:52 41.61413 122.99301 25146 ft 387 kts 271°
2026-04-22 06:53 41.61363 122.95698 25407 ft 389 kts 271°
2026-04-22 06:53 41.61312 122.92069 25701 ft 391 kts 271°
2026-04-22 06:53 41.61259 122.88433 26022 ft 392 kts 271°
2026-04-22 06:53 41.61204 122.84786 26334 ft 393 kts 270°
2026-04-22 06:54 41.61149 122.81171 26655 ft 395 kts 270°
2026-04-22 06:54 41.61092 122.77489 26976 ft 397 kts 270°
2026-04-22 06:54 41.61034 122.73783 27231 ft 400 kts 270°
2026-04-22 06:54 41.60974 122.70051 27557 ft 402 kts 270°
2026-04-22 06:55 41.60912 122.66290 27930 ft 404 kts 270°
2026-04-22 06:55 41.60849 122.62526 28300 ft 406 kts 270°
2026-04-22 06:55 41.60784 122.58742 28673 ft 408 kts 270°
2026-04-22 06:55 41.60718 122.54945 28997 ft 411 kts 270°
2026-04-22 06:56 41.60650 122.51108 29366 ft 413 kts 270°
2026-04-22 06:56 41.60580 122.47260 29736 ft 416 kts 270°
2026-04-22 06:56 41.60509 122.43441 30108 ft 418 kts 270°
2026-04-22 06:56 41.60436 122.39543 30426 ft 420 kts 270°
2026-04-22 06:57 41.60361 122.35625 30744 ft 422 kts 269°
2026-04-22 06:57 41.60285 122.31693 31038 ft 424 kts 269°
2026-04-22 06:57 41.60207 122.27747 31349 ft 426 kts 269°
2026-04-22 06:57 41.60127 122.23779 31638 ft 428 kts 269°
2026-04-22 06:58 41.60045 122.19794 31911 ft 430 kts 269°
2026-04-22 06:58 41.59962 122.15789 32100 ft 433 kts 269°
2026-04-22 06:58 41.59876 122.11752 32309 ft 436 kts 269°
2026-04-22 06:58 41.59789 122.07691 32606 ft 437 kts 269°
2026-04-22 06:59 41.59700 122.03640 33006 ft 435 kts 269°
2026-04-22 06:59 41.59611 121.99663 33399 ft 434 kts 269°
2026-04-22 06:59 41.59520 121.95639 33820 ft 432 kts 269°
2026-04-22 06:59 41.59428 121.91632 34208 ft 430 kts 269°
2026-04-22 07:00 41.59336 121.87640 34590 ft 428 kts 269°
2026-04-22 07:00 41.59242 121.83671 34982 ft 425 kts 269°
2026-04-22 07:00 41.59147 121.79730 35385 ft 422 kts 269°
2026-04-22 07:00 41.59052 121.75823 35796 ft 419 kts 269°
2026-04-22 07:01 41.58956 121.71926 36174 ft 417 kts 269°
2026-04-22 07:01 41.58892 121.69358 36418 ft 416 kts 269°
2026-04-22 07:01 41.58763 121.64250 36888 ft 414 kts 269°
2026-04-22 07:01 41.58665 121.60416 37238 ft 412 kts 268°
2026-04-22 07:02 41.58566 121.56603 37565 ft 409 kts 268°
2026-04-22 07:02 41.58466 121.52812 37970 ft 407 kts 268°
2026-04-22 07:02 41.58400 121.50316 38212 ft 405 kts 268°
2026-04-22 07:02 41.58265 121.45298 38664 ft 403 kts 268°
2026-04-22 07:03 41.58197 121.42828 38818 ft 402 kts 268°
2026-04-22 07:03 41.58060 121.37831 39039 ft 403 kts 268°
2026-04-22 07:03 41.57990 121.35345 39115 ft 404 kts 268°
2026-04-22 07:04 41.57777 121.27798 39338 ft 407 kts 268°
2026-04-22 07:04 41.57668 121.24023 39509 ft 407 kts 268°
2026-04-22 07:04 41.57558 121.20253 39687 ft 406 kts 268°
2026-04-22 07:04 41.57401 121.15246 39897 ft 406 kts 268°
2026-04-22 07:05 41.57292 121.12694 39998 ft 407 kts 267°
2026-04-22 07:05 41.57104 121.08920 40111 ft 407 kts 267°
2026-04-22 07:05 41.56903 121.05142 40127 ft 407 kts 267°
2026-04-22 07:06 41.56504 120.97652 40100 ft 407 kts 267°
2026-04-22 07:06 41.56117 120.90111 40128 ft 407 kts 267°
2026-04-22 07:07 41.55733 120.82544 40126 ft 408 kts 267°
2026-04-22 07:07 41.55346 120.74981 40125 ft 408 kts 266°
2026-04-22 07:08 41.54954 120.67413 40115 ft 408 kts 266°
2026-04-22 07:08 41.54556 120.59846 40116 ft 408 kts 266°
2026-04-22 07:09 41.54153 120.52280 40126 ft 408 kts 266°
2026-04-22 07:09 41.53721 120.44755 40116 ft 410 kts 264°
2026-04-22 07:10 41.52732 120.37200 40119 ft 416 kts 261°
2026-04-22 07:10 41.51562 120.29574 40115 ft 422 kts 260°
2026-04-22 07:11 41.50346 120.21887 40113 ft 424 kts 260°
2026-04-22 07:11 41.49126 120.14167 40107 ft 425 kts 260°
2026-04-22 07:12 41.47908 120.06454 40109 ft 425 kts 260°
2026-04-22 07:12 41.46695 119.98778 40070 ft 426 kts 260°
2026-04-22 07:13 41.45467 119.91050 40106 ft 426 kts 260°
2026-04-22 07:13 41.44234 119.83327 40102 ft 426 kts 260°
2026-04-22 07:14 41.42994 119.75602 40098 ft 425 kts 259°
2026-04-22 07:14 41.41758 119.67933 40095 ft 425 kts 259°
2026-04-22 07:15 41.40510 119.60224 40094 ft 425 kts 259°
2026-04-22 07:15 41.39255 119.52503 40087 ft 427 kts 259°
2026-04-22 07:16 41.37992 119.44767 40094 ft 427 kts 259°
2026-04-22 07:16 41.36729 119.37073 40086 ft 427 kts 259°
2026-04-22 07:17 41.35455 119.29341 40091 ft 427 kts 259°
2026-04-22 07:17 41.34175 119.21609 40084 ft 427 kts 259°
2026-04-22 07:18 41.32890 119.13884 40076 ft 427 kts 259°
2026-04-22 07:18 41.31600 119.06159 40082 ft 428 kts 259°
2026-04-22 07:19 41.30312 118.98481 40074 ft 428 kts 259°
2026-04-22 07:19 41.29011 118.90758 40077 ft 428 kts 259°
2026-04-22 07:20 41.27703 118.83021 40067 ft 428 kts 259°
2026-04-22 07:20 41.26390 118.75288 40072 ft 428 kts 259°
2026-04-22 07:21 41.25070 118.67562 40065 ft 428 kts 259°
2026-04-22 07:21 41.23745 118.59835 40066 ft 430 kts 259°
2026-04-22 07:22 41.22324 118.52100 40061 ft 432 kts 257°
2026-04-22 07:22 41.20777 118.44429 40059 ft 432 kts 257°
2026-04-22 07:23 41.19222 118.36716 40061 ft 432 kts 257°
2026-04-22 07:23 41.17683 118.28990 40058 ft 433 kts 257°
2026-04-22 07:24 41.16151 118.21274 40055 ft 432 kts 257°
2026-04-22 07:24 41.14613 118.13557 40047 ft 432 kts 257°
2026-04-22 07:25 41.13082 118.05907 40050 ft 432 kts 257°
2026-04-22 07:25 41.11668 117.98166 40043 ft 432 kts 259°
2026-04-22 07:26 41.10506 117.90335 40045 ft 433 kts 260°
2026-04-22 07:26 41.09341 117.82510 40038 ft 432 kts 260°
2026-04-22 07:27 41.08132 117.74732 40045 ft 430 kts 259°
2026-04-22 07:27 41.06899 117.66977 40035 ft 429 kts 259°
2026-04-22 07:28 41.04775 117.55492 40029 ft 432 kts 252°
2026-04-22 07:28 41.01947 117.48450 40042 ft 438 kts 238°
2026-04-22 07:29 40.97632 117.42626 40035 ft 451 kts 223°
2026-04-22 07:29 40.92039 117.38574 40046 ft 465 kts 210°
2026-04-22 07:30 40.86023 117.35478 40046 ft 468 kts 208°
2026-04-22 07:30 40.79923 117.32473 40041 ft 467 kts 208°
2026-04-22 07:31 40.73842 117.29437 40047 ft 467 kts 208°
2026-04-22 07:31 40.67753 117.26400 40051 ft 468 kts 208°
2026-04-22 07:32 40.61617 117.23514 40057 ft 467 kts 207°
2026-04-22 07:32 40.55494 117.20664 40058 ft 466 kts 207°
2026-04-22 07:33 40.49378 117.17794 40036 ft 466 kts 207°
2026-04-22 07:33 40.43324 117.14947 40063 ft 464 kts 207°
2026-04-22 07:34 40.37241 117.12090 40070 ft 464 kts 207°
2026-04-22 07:34 40.31156 117.09237 40039 ft 464 kts 207°
2026-04-22 07:35 40.25066 117.06388 40062 ft 463 kts 207°
2026-04-22 07:35 40.18995 117.03555 40066 ft 463 kts 207°
2026-04-22 07:36 40.12952 117.00739 40042 ft 463 kts 208°
2026-04-22 07:36 40.06887 116.97918 40061 ft 463 kts 208°
2026-04-22 07:37 40.00813 116.95098 40063 ft 463 kts 208°
2026-04-22 07:37 39.94743 116.92285 40061 ft 463 kts 208°
2026-04-22 07:38 39.88663 116.89473 40058 ft 463 kts 208°
2026-04-22 07:38 39.82583 116.86666 40074 ft 463 kts 207°
2026-04-22 07:39 39.76545 116.83877 40050 ft 462 kts 208°
2026-04-22 07:39 39.70498 116.81025 40061 ft 462 kts 208°
2026-04-22 07:40 39.64463 116.78166 40062 ft 462 kts 208°
2026-04-22 07:40 39.58427 116.75324 40051 ft 461 kts 208°
2026-04-22 07:41 39.52399 116.72499 40062 ft 460 kts 208°
2026-04-22 07:41 39.46376 116.69682 40063 ft 460 kts 208°
2026-04-22 07:42 39.40348 116.66867 40051 ft 459 kts 208°
2026-04-22 07:42 39.34336 116.64066 40062 ft 459 kts 208°
2026-04-22 07:43 39.28329 116.61272 40053 ft 459 kts 208°
2026-04-22 07:43 39.22330 116.58469 40041 ft 456 kts 210°
2026-04-22 07:44 39.16851 116.54758 40052 ft 443 kts 220°
2026-04-22 07:44 39.11755 116.50320 40070 ft 441 kts 222°
2026-04-22 07:45 39.06738 116.45780 40056 ft 440 kts 222°
2026-04-22 07:45 39.01727 116.41259 40060 ft 439 kts 222°
2026-04-22 07:46 38.96746 116.36800 40060 ft 439 kts 222°
2026-04-22 07:46 38.91724 116.32325 40060 ft 439 kts 222°
2026-04-22 07:47 38.86705 116.27864 40059 ft 438 kts 222°
2026-04-22 07:47 38.81691 116.23413 40069 ft 438 kts 221°
2026-04-22 07:48 38.76703 116.18991 40062 ft 439 kts 221°
2026-04-22 07:48 38.71681 116.14548 40045 ft 438 kts 221°
2026-04-22 07:49 38.66608 116.10196 40060 ft 442 kts 217°
2026-04-22 07:49 38.60955 116.06876 40060 ft 451 kts 210°
2026-04-22 07:50 38.56071 116.04494 40063 ft 452 kts 209°
2026-04-22 07:50 38.50168 116.01723 40066 ft 451 kts 209°
2026-04-22 07:51 38.44270 115.98950 40064 ft 450 kts 209°
2026-04-22 07:51 38.37439 115.95713 40061 ft 450 kts 209°
2026-04-22 07:52 38.32557 115.93395 40054 ft 450 kts 209°
2026-04-22 07:52 38.26502 115.91146 40065 ft 462 kts 199°
2026-04-22 07:53 38.20097 115.89950 40068 ft 466 kts 197°
2026-04-22 07:53 38.13652 115.88966 40068 ft 466 kts 196°
2026-04-22 07:54 38.07195 115.88002 40065 ft 466 kts 196°
2026-04-22 07:54 38.00798 115.87020 40069 ft 466 kts 197°
2026-04-22 07:55 37.94353 115.86017 40037 ft 466 kts 197°
2026-04-22 07:55 37.87916 115.85018 40066 ft 465 kts 197°
2026-04-22 07:56 37.81494 115.83974 40069 ft 464 kts 197°
2026-04-22 07:56 37.75141 115.82902 40067 ft 462 kts 199°
2026-04-22 07:57 37.69089 115.80749 40067 ft 444 kts 211°
2026-04-22 07:57 37.63429 115.77671 40067 ft 441 kts 213°
2026-04-22 07:58 37.57836 115.74444 40066 ft 441 kts 213°
2026-04-22 07:58 37.52295 115.71247 40058 ft 440 kts 213°
2026-04-22 07:59 37.46717 115.68063 40065 ft 440 kts 213°
2026-04-22 07:59 37.41133 115.64891 40064 ft 440 kts 213°
2026-04-22 08:00 37.35609 115.61613 40038 ft 438 kts 214°
2026-04-22 08:00 37.30099 115.58288 40066 ft 438 kts 214°
2026-04-22 08:01 37.24628 115.55012 40066 ft 438 kts 214°
2026-04-22 08:01 37.19113 115.51732 40067 ft 438 kts 214°
2026-04-22 08:02 37.13607 115.48469 40056 ft 438 kts 214°
2026-04-22 08:02 37.08091 115.45205 40064 ft 437 kts 214°
2026-04-22 08:03 37.02623 115.41974 40063 ft 437 kts 214°
2026-04-22 08:03 36.97114 115.38723 40040 ft 437 kts 214°
2026-04-22 08:04 36.91604 115.35477 40062 ft 437 kts 213°
2026-04-22 08:04 36.86096 115.32236 40070 ft 437 kts 213°
2026-04-22 08:05 36.80623 115.29023 40060 ft 437 kts 213°
2026-04-22 08:05 36.75111 115.25791 40050 ft 437 kts 213°
2026-04-22 08:06 36.69599 115.22567 40064 ft 437 kts 213°
2026-04-22 08:06 36.64091 115.19348 40069 ft 437 kts 213°
2026-04-22 08:07 36.58615 115.16144 40052 ft 437 kts 213°
2026-04-22 08:07 36.53105 115.12932 40059 ft 438 kts 213°
2026-04-22 08:08 36.47585 115.09727 40058 ft 438 kts 213°
2026-04-22 08:08 36.42063 115.06526 40058 ft 438 kts 213°
2026-04-22 08:09 36.36415 115.03588 40052 ft 447 kts 206°
2026-04-22 08:09 36.30182 115.02161 40060 ft 462 kts 196°
2026-04-22 08:10 36.23745 115.01451 40061 ft 465 kts 194°
2026-04-22 08:10 36.17324 115.00860 40060 ft 465 kts 194°
2026-04-22 08:11 36.10871 115.00242 40060 ft 463 kts 194°
2026-04-22 08:11 36.04438 114.99595 40060 ft 463 kts 195°
2026-04-22 08:12 35.98058 114.98943 40060 ft 463 kts 195°
2026-04-22 08:12 35.91635 114.98286 40059 ft 463 kts 194°
2026-04-22 08:13 35.85198 114.97631 40060 ft 464 kts 194°
2026-04-22 08:13 35.78752 114.96979 40060 ft 464 kts 194°
2026-04-22 08:14 35.72298 114.96327 40020 ft 464 kts 194°
2026-04-22 08:14 35.65858 114.95676 40063 ft 464 kts 194°
2026-04-22 08:15 35.59454 114.95030 40066 ft 464 kts 194°
2026-04-22 08:15 35.53000 114.94380 40066 ft 464 kts 194°
2026-04-22 08:16 35.46558 114.93733 40063 ft 463 kts 193°
2026-04-22 08:16 35.40185 114.93095 40068 ft 462 kts 193°
2026-04-22 08:17 35.33782 114.92453 40071 ft 461 kts 193°
2026-04-22 08:17 35.27385 114.91812 40045 ft 461 kts 193°
2026-04-22 08:18 35.20988 114.91171 40072 ft 462 kts 193°
2026-04-22 08:18 35.14572 114.90531 40073 ft 462 kts 193°
2026-04-22 08:19 35.08188 114.89896 40082 ft 462 kts 193°
2026-04-22 08:19 35.01765 114.89257 40063 ft 462 kts 192°
2026-04-22 08:20 34.95334 114.88618 40077 ft 464 kts 192°
2026-04-22 08:20 34.88933 114.87983 40078 ft 464 kts 192°
2026-04-22 08:21 34.82483 114.87346 40079 ft 464 kts 192°
2026-04-22 08:21 34.76024 114.86707 40086 ft 466 kts 192°
2026-04-22 08:22 34.69544 114.86067 40082 ft 467 kts 192°
2026-04-22 08:22 34.63100 114.85434 40087 ft 467 kts 192°
2026-04-22 08:23 34.56613 114.84797 40085 ft 468 kts 192°
2026-04-22 08:23 34.50101 114.84155 40090 ft 471 kts 192°
2026-04-22 08:24 34.43555 114.83514 40088 ft 471 kts 192°
2026-04-22 08:24 34.37014 114.82876 40092 ft 471 kts 192°
2026-04-22 08:25 34.30470 114.82237 40090 ft 472 kts 192°
2026-04-22 08:25 34.23917 114.81597 40092 ft 472 kts 192°
2026-04-22 08:26 34.17413 114.80964 40092 ft 472 kts 192°
2026-04-22 08:26 34.10855 114.80337 40076 ft 473 kts 192°
2026-04-22 08:27 34.04273 114.79699 40097 ft 476 kts 192°
2026-04-22 08:27 33.97649 114.79060 40098 ft 477 kts 192°
2026-04-22 08:28 33.91037 114.78428 40098 ft 476 kts 192°
2026-04-22 08:28 33.84427 114.77796 40099 ft 476 kts 192°
2026-04-22 08:29 33.77858 114.77164 40099 ft 476 kts 192°
2026-04-22 08:29 33.71252 114.76492 40101 ft 476 kts 192°
2026-04-22 08:30 33.64641 114.75851 40089 ft 477 kts 192°
2026-04-22 08:30 33.57988 114.75239 40102 ft 480 kts 192°
2026-04-22 08:31 33.51325 114.74572 40102 ft 480 kts 192°
2026-04-22 08:32 33.41373 114.73562 40077 ft 480 kts 192°
2026-04-22 08:32 33.34695 114.72914 40099 ft 482 kts 192°
2026-04-22 08:33 33.27982 114.72267 40102 ft 483 kts 192°
2026-04-22 08:33 33.21312 114.71627 40101 ft 483 kts 192°
2026-04-22 08:34 33.14608 114.70983 40097 ft 484 kts 192°
2026-04-22 08:34 33.07878 114.70310 40096 ft 485 kts 192°
2026-04-22 08:35 33.01142 114.69640 40095 ft 485 kts 192°
2026-04-22 08:35 32.94407 114.68976 40068 ft 485 kts 193°
2026-04-22 08:36 32.87656 114.68312 40094 ft 488 kts 193°
2026-04-22 08:36 32.80906 114.67667 40098 ft 490 kts 192°
2026-04-22 08:37 32.74101 114.67029 40100 ft 490 kts 192°
2026-04-22 08:37 32.67299 114.66392 40093 ft 491 kts 193°
2026-04-22 08:38 32.61637 114.65858 40090 ft 492 kts 193°
2026-04-22 08:38 32.54800 114.65215 40099 ft 492 kts 193°
2026-04-22 08:39 32.47967 114.64574 40084 ft 492 kts 193°
2026-04-22 08:39 32.41136 114.63935 40086 ft 492 kts 193°
2026-04-22 08:40 32.34307 114.63296 40091 ft 492 kts 193°
2026-04-22 08:40 32.27516 114.62631 40092 ft 492 kts 193°
2026-04-22 08:41 32.20697 114.61958 40060 ft 491 kts 194°
2026-04-22 08:41 32.13879 114.61293 40087 ft 490 kts 194°
2026-04-22 08:42 32.07086 114.60634 40083 ft 489 kts 194°
2026-04-22 08:42 32.00287 114.59975 40085 ft 489 kts 194°
2026-04-22 08:43 31.93540 114.59324 40075 ft 488 kts 194°
2026-04-22 08:43 31.86775 114.58672 40076 ft 487 kts 194°
2026-04-22 08:44 31.80021 114.58021 40079 ft 487 kts 194°
2026-04-22 08:44 31.73266 114.57369 40048 ft 487 kts 194°
2026-04-22 08:45 31.66566 114.56727 40073 ft 486 kts 195°
2026-04-22 08:45 31.59812 114.56086 40068 ft 486 kts 195°
2026-04-22 08:46 31.53069 114.55438 40065 ft 485 kts 195°
2026-04-22 08:46 31.46331 114.54790 40067 ft 486 kts 195°
2026-04-22 08:47 31.39590 114.54146 40062 ft 486 kts 195°
2026-04-22 08:47 31.32885 114.53508 40062 ft 486 kts 195°
2026-04-22 08:48 31.26177 114.52714 40067 ft 477 kts 201°
2026-04-22 08:48 31.23007 114.51749 40033 ft 464 kts 210°
2026-04-22 08:48 31.20030 114.50375 40057 ft 458 kts 213°
2026-04-22 08:49 31.14241 114.47324 40068 ft 456 kts 215°
2026-04-22 08:49 31.08499 114.44179 40063 ft 456 kts 215°
2026-04-22 08:50 31.02746 114.41057 40058 ft 456 kts 215°
2026-04-22 08:50 30.97006 114.37975 40070 ft 458 kts 214°
2026-04-22 08:51 30.91190 114.34865 40033 ft 459 kts 215°
2026-04-22 08:51 30.85466 114.31631 40045 ft 456 kts 216°
2026-04-22 08:52 30.79773 114.28316 40043 ft 457 kts 216°
2026-04-22 08:52 30.74054 114.25144 40035 ft 460 kts 215°
2026-04-22 08:53 30.68210 114.21993 40040 ft 462 kts 214°
2026-04-22 08:53 30.62411 114.18870 40045 ft 462 kts 214°
2026-04-22 08:54 30.56578 114.15724 40048 ft 462 kts 214°
2026-04-22 08:54 30.50743 114.12580 40054 ft 463 kts 214°
2026-04-22 08:55 30.44880 114.09405 40062 ft 465 kts 214°
2026-04-22 08:55 30.39019 114.06237 40077 ft 465 kts 214°
2026-04-22 08:56 30.33187 114.03096 40063 ft 464 kts 214°
2026-04-22 08:56 30.27321 113.99940 40061 ft 466 kts 214°
2026-04-22 08:57 30.21422 113.96775 40075 ft 468 kts 214°
2026-04-22 08:57 30.15507 113.93610 40062 ft 468 kts 214°
2026-04-22 08:58 30.09604 113.90453 40068 ft 468 kts 214°
2026-04-22 08:58 30.03721 113.87310 40066 ft 468 kts 214°
2026-04-22 08:59 29.97805 113.84154 40073 ft 469 kts 214°
2026-04-22 08:59 29.91862 113.80991 40072 ft 469 kts 214°
2026-04-22 09:00 29.85551 113.78598 40072 ft 490 kts 200°
2026-04-22 09:00 29.78718 113.77768 40071 ft 500 kts 193°
2026-04-22 09:01 29.71689 113.77304 40073 ft 503 kts 192°
2026-04-22 09:01 29.64743 113.76886 40072 ft 503 kts 193°
2026-04-22 09:02 29.57761 113.76429 40072 ft 503 kts 193°
2026-04-22 09:02 29.50767 113.75947 40073 ft 502 kts 193°
2026-04-22 09:03 29.43800 113.75462 40068 ft 501 kts 193°
2026-04-22 09:03 29.36832 113.74978 40066 ft 501 kts 193°
2026-04-22 09:04 29.29857 113.74494 40042 ft 501 kts 193°
2026-04-22 09:04 29.22890 113.74015 40083 ft 502 kts 193°
2026-04-22 09:05 29.15832 113.74003 40115 ft 511 kts 187°
2026-04-22 09:05 29.08768 113.74358 40111 ft 512 kts 186°
2026-04-22 09:06 29.01649 113.74674 40118 ft 511 kts 187°
2026-04-22 09:06 28.94543 113.74910 40141 ft 510 kts 187°
2026-04-22 09:07 28.87436 113.75114 40132 ft 510 kts 188°
2026-04-22 09:07 28.80363 113.75313 40158 ft 510 kts 188°
2026-04-22 09:08 28.73307 113.75401 40304 ft 500 kts 192°
2026-04-22 09:08 28.66380 113.74987 40383 ft 497 kts 193°
2026-04-22 09:09 28.59480 113.74475 40402 ft 497 kts 193°
2026-04-22 09:09 28.52562 113.73949 40404 ft 498 kts 193°
2026-04-22 09:10 28.45671 113.73441 40545 ft 494 kts 193°
2026-04-22 09:10 28.38811 113.72939 40583 ft 493 kts 193°
2026-04-22 09:11 28.31961 113.72437 40584 ft 493 kts 193°
2026-04-22 09:11 28.25154 113.71949 40583 ft 493 kts 193°
2026-04-22 09:12 28.18305 113.71458 40603 ft 492 kts 193°
2026-04-22 09:12 28.11479 113.70954 40610 ft 492 kts 193°
2026-04-22 09:13 28.04649 113.70376 40610 ft 490 kts 194°
2026-04-22 09:13 27.97849 113.69750 40613 ft 490 kts 194°
2026-04-22 09:14 27.91054 113.69119 40582 ft 490 kts 194°
2026-04-22 09:14 27.84283 113.68505 40582 ft 491 kts 194°
2026-04-22 09:15 27.77434 113.67893 40589 ft 491 kts 194°
2026-04-22 09:15 27.70651 113.67290 40600 ft 491 kts 194°
2026-04-22 09:16 27.63827 113.66685 40575 ft 492 kts 194°
2026-04-22 09:16 27.56939 113.66378 40577 ft 497 kts 190°
2026-04-22 09:17 27.50043 113.66322 40579 ft 498 kts 189°
2026-04-22 09:17 27.43113 113.66240 40599 ft 498 kts 190°
2026-04-22 09:18 27.36183 113.66106 40541 ft 497 kts 190°
2026-04-22 09:18 27.29219 113.65949 40541 ft 500 kts 190°
2026-04-22 09:19 27.22306 113.65792 40555 ft 500 kts 190°
2026-04-22 09:19 27.15273 113.66545 40533 ft 518 kts 176°
2026-04-22 09:20 27.08234 113.68457 40544 ft 522 kts 173°
2026-04-22 09:20 27.01221 113.70573 40550 ft 522 kts 173°
2026-04-22 09:21 26.94204 113.72690 40550 ft 522 kts 173°
2026-04-22 09:21 26.87177 113.74776 40557 ft 522 kts 173°
2026-04-22 09:22 26.80173 113.76837 40539 ft 522 kts 173°
2026-04-22 09:22 26.73139 113.78904 40562 ft 522 kts 173°
2026-04-22 09:23 26.66141 113.81065 40570 ft 523 kts 172°
2026-04-22 09:23 26.59133 113.83287 40587 ft 523 kts 172°
2026-04-22 09:24 26.52133 113.85495 40575 ft 522 kts 172°
2026-04-22 09:24 26.45122 113.87653 40592 ft 521 kts 173°
2026-04-22 09:25 26.39291 113.89324 40585 ft 520 kts 173°
2026-04-22 09:25 26.31170 113.91629 40599 ft 517 kts 173°
2026-04-22 09:26 26.25371 113.93289 40485 ft 517 kts 173°
2026-04-22 09:26 26.21876 113.94293 40355 ft 518 kts 173°
2026-04-22 09:26 26.18383 113.95299 40185 ft 518 kts 173°
2026-04-22 09:26 26.14901 113.96303 40016 ft 518 kts 173°
2026-04-22 09:27 26.11412 113.97363 39831 ft 522 kts 170°
2026-04-22 09:27 26.06821 113.99087 39476 ft 526 kts 168°
2026-04-22 09:27 26.04458 113.99963 39040 ft 533 kts 168°
2026-04-22 09:27 26.01044 114.01168 38934 ft 509 kts 175°
2026-04-22 09:28 25.97203 114.02473 35002 ft 394 kts 159°
2026-04-22 09:28 25.96003 114.03365 30643 ft 483 kts 94°